[[{"header":{"parameterUnit":"m.s-1","parameterCategory":1,"la1":30.2991,"la2":30.254,"lo1":-89.0895,"lo2":-89.0444,"dy":0.0017,"dx":0.0017,"nx":28,"ny":28,"refTime":"2023-04-26T21:00:00:Z","depth":0,"parameterNumber":2,"parameterNumberName":"U-component_of_WINDS"},"data":[0,0,0,0,0,0,0,0,0,0,0,0,0,0,0,0,0,0,0,0,0,0,0,0,0,0,0,0,0,0,0,0,0,0,0,0,0,0,0,0,0,0,0,0,0,0,0,0,0,0,0,0,0,0,0,0,0,0,1.4864,1.4865,0,1.4956,1.4957,1.4958,1.4943,1.4941,1.494,1.4938,1.5038,1.5042,1.5046,0,0,0,0,0,0,0,0,0,0,0,0,0,1.468,1.4683,1.4864,1.4865,1.4866,1.4956,1.4957,1.4959,1.4943,1.4941,1.4939,1.4937,1.5036,1.5041,1.5046,0,0,0,0,0,0,0,0,0,0,0,0,0,1.4765,1.4684,1.4863,1.4869,1.487,1.4956,1.4958,1.4959,1.4944,1.4941,1.4939,1.4936,1.5035,1.5041,1.5047,1.5134,0,0,1.5066,1.5069,0,0,0,0,0,0,0,0,1.476,1.4771,1.4867,1.4869,1.487,1.4935,1.4929,1.5018,1.4944,1.4916,1.4938,1.4935,1.5006,1.5014,1.5037,1.5139,1.5143,1.5066,1.507,1.5073,1.5075,0,0,0,0,0,0,0,1.4754,1.4767,1.49,1.4868,1.4871,1.4869,1.4878,1.4946,1.4974,1.4918,1.4917,1.4928,1.5006,1.5031,1.5039,1.5144,1.5066,1.5072,1.5076,1.5078,1.5327,1.5329,0,0,0,0,0,0,1.4746,1.4763,1.4897,1.4903,1.4808,1.4874,1.4885,1.4917,1.4973,1.4979,1.493,1.4927,1.5022,1.5032,1.5043,1.5152,1.5073,1.5079,1.5082,1.5324,1.5327,1.533,0,0,0,0,0,0,1.4742,1.4758,1.4894,1.4833,1.485,1.488,1.4917,1.492,1.4945,1.4982,1.4987,1.495,1.502,1.5034,1.5112,1.5155,1.5081,1.5087,1.532,1.5325,1.5329,1.5368,0,0,0,0,0,0,1.4737,1.4756,1.4788,1.4833,1.4853,1.496,1.4919,1.4924,1.4955,1.4952,1.5002,1.5008,1.5019,1.5103,1.5118,1.5162,1.5092,1.5317,1.5322,1.5327,1.5363,1.5373,1.5381,0,0,0,0,0,1.473,1.4796,1.479,1.4806,1.4893,1.4962,1.4973,1.4984,1.4959,1.4992,1.5017,1.5006,1.5147,1.5111,1.5128,1.5174,1.5314,1.5321,1.5327,1.5359,1.5371,1.5381,0,0,0,0,0,0,1.4755,1.4801,1.4796,1.4877,1.4916,1.4959,1.5001,1.4996,1.5044,1.5039,1.5051,1.5063,1.5143,1.5166,1.5125,1.5264,1.5228,1.5238,1.5246,1.5258,1.5267,1.526,1.5097,0,0,0,0,0,1.477,1.482,1.4859,1.4927,1.4947,1.4971,1.5001,1.5006,1.5047,1.5064,1.5093,1.5135,1.5189,1.5224,1.5276,1.5366,1.5378,1.5406,1.5416,1.5423,1.5432,1.5485,1.5499,1.5352,1.5351,1.5351,0,0,1.4802,1.4833,1.4864,1.4933,1.4964,1.5018,1.4985,1.5043,1.5084,1.5073,1.5149,1.5172,1.522,1.5305,1.5344,1.5327,1.5476,1.5431,1.5437,1.5442,1.5494,1.5508,1.552,1.5356,1.5355,1.5354,0,0,1.4888,1.4915,1.4977,1.5008,1.5055,1.5071,1.5086,1.5131,1.5146,1.5222,1.5216,1.5266,1.5358,1.5393,1.5423,1.5525,1.5519,1.5542,1.5591,1.5642,1.5654,1.5664,1.5704,1.5717,1.555,1.555,1.555,0,1.4922,1.5001,1.501,1.5069,1.5101,1.5093,1.5158,1.5188,1.525,1.5273,1.5253,1.537,1.5401,1.5496,1.5522,1.5545,1.5565,1.5536,1.5651,1.5662,1.5672,1.571,1.5724,1.5553,1.5553,1.5552,1.5552,0,1.5042,1.5098,1.5143,1.5202,1.5239,1.53,1.5321,1.5358,1.536,1.5379,1.5459,1.5496,1.5557,1.558,1.5582,1.5677,1.5665,1.5648,1.5612,1.5688,1.5724,1.5739,1.5557,1.5556,1.5555,1.5554,0,0,1.5146,1.521,1.5227,1.5255,1.5307,1.5351,1.5414,1.5472,1.5505,1.5548,1.5604,1.5683,1.5668,1.5702,1.5709,1.5754,1.5837,1.5732,1.5734,1.5753,1.5947,1.5961,1.5977,1.5833,1.5835,1.5838,1.5944,0,1.5239,1.5348,1.5359,1.5458,1.5512,1.5506,1.5561,1.5601,1.5621,1.5671,1.5694,1.5751,1.5725,1.5747,1.5791,1.5817,1.5877,1.581,1.5887,1.589,1.5877,1.5995,1.601,1.6108,1.5958,1.596,1.5962,0,1.5361,1.5408,1.5512,1.5559,1.5582,1.5631,1.5688,1.5735,1.578,1.5792,1.5831,1.5833,1.5901,1.5862,1.5958,1.5912,1.5944,1.5963,1.5967,1.5976,1.5931,1.601,1.6139,1.6155,1.5983,1.5981,1.598,0,1.543,1.5519,1.5594,1.5618,1.5674,1.5709,1.5735,1.5778,1.5813,1.5863,1.5887,1.5944,1.5976,1.6021,1.604,1.6009,1.6136,1.6097,1.615,1.615,1.6178,1.6176,1.6317,1.6195,1.6195,1.6195,1.6195,0,1.5534,1.5598,1.5626,1.5672,1.5746,1.5759,1.5832,1.5856,1.5895,1.5948,1.5946,1.5996,1.6017,1.6071,1.6086,1.6165,1.6179,1.6193,1.6196,1.6194,1.6193,1.6217,1.6211,1.6199,1.6198,1.6197,1.6196,0,1.5623,1.5644,1.5725,1.5772,1.5786,1.5838,1.5879,1.5926,1.5946,1.6013,1.6029,1.6062,1.6126,1.6148,1.6226,1.6236,1.6329,1.6326,1.6313,1.6315,1.6367,1.6363,1.653,1.6554,1.6414,1.6416,1.6417,0,1.5689,1.5739,1.5791,1.5826,1.5853,1.5909,1.5945,1.5961,1.5999,1.6057,1.6097,1.616,1.6212,1.6315,1.6347,1.6407,1.6407,1.6461,1.6416,1.6413,1.6411,1.6409,1.6415,1.647,1.6471,1.6473,1.6474,0,1.5805,1.5813,1.5864,1.5921,1.5964,1.6009,1.6053,1.6083,1.6105,1.6149,1.6214,1.6254,1.6334,1.6398,1.6461,1.6489,1.6487,1.6487,1.6503,1.6503,1.6494,1.6502,1.6339,1.6484,1.6483,1.6482,1.6481,1.6481,1.5886,1.5932,1.5976,1.6035,1.607,1.6111,1.6158,1.6184,1.6238,1.6304,1.631,1.6381,1.6429,1.6512,1.6544,1.6601,1.6587,1.6609,1.6615,1.6621,1.6627,1.6484,1.6613,1.6612,1.6612,1.6612,1.6612,0,1.6004,1.6033,1.6087,1.6149,1.6196,1.6187,1.6236,1.6277,1.6339,1.6383,1.6434,1.6511,1.6574,1.6611,1.6674,1.6714,1.6714,1.673,1.6729,1.6736,1.6635,1.6616,1.6729,1.6729,1.6729,1.6729,1.6729,1.6729,1.6071,1.6148,1.6163,1.6258,1.6287,1.6356,1.6385,1.6425,1.646,1.6545,1.6597,1.6621,1.6663,1.673,1.6789,1.6798,1.6823,1.6841,1.685,1.6755,1.6743,1.6731,1.6713,1.6845,1.6846,1.6946,1.6947,1.6948]},{"header":{"parameterUnit":"m.s-1","parameterCategory":1,"la1":30.2991,"la2":30.254,"lo1":-89.0895,"lo2":-89.0444,"dy":0.0017,"dx":0.0017,"nx":28,"ny":28,"refTime":"2023-04-26T21:00:00:Z","depth":0,"parameterNumber":3,"parameterNumberName":"V-component_of_WINDS"},"data":[0,0,0,0,0,0,0,0,0,0,0,0,0,0,0,0,0,0,0,0,0,0,0,0,0,0,0,0,0,0,0,0,0,0,0,0,0,0,0,0,0,0,0,0,0,0,0,0,0,0,0,0,0,0,0,0,0,0,0.1483,0.1484,0,0.1552,0.1553,0.1554,0.1509,0.1506,0.1504,0.1502,0.1579,0.1583,0.1587,0,0,0,0,0,0,0,0,0,0,0,0,0,0.1315,0.1318,0.1483,0.1484,0.1485,0.1552,0.1553,0.1554,0.1509,0.1506,0.1504,0.1501,0.1577,0.1582,0.1587,0,0,0,0,0,0,0,0,0,0,0,0,0,0.1387,0.1319,0.1483,0.147,0.147,0.1552,0.1553,0.1554,0.1509,0.1506,0.1503,0.15,0.1576,0.1582,0.1588,0.1688,0,0,0.1606,0.1609,0,0,0,0,0,0,0,0,0.1383,0.1393,0.1471,0.1471,0.1471,0.1518,0.1522,0.1599,0.151,0.1495,0.1502,0.1499,0.1562,0.1569,0.1589,0.1692,0.1695,0.1606,0.161,0.1613,0.1614,0,0,0,0,0,0,0,0.1378,0.139,0.1511,0.1472,0.1472,0.1462,0.1469,0.1536,0.1545,0.1496,0.1492,0.1501,0.1561,0.1583,0.159,0.1696,0.1606,0.1612,0.1615,0.1618,0.1883,0.1886,0,0,0,0,0,0,0.1373,0.1386,0.1508,0.1513,0.1418,0.1468,0.1475,0.1506,0.1544,0.1547,0.1504,0.1499,0.1574,0.1583,0.1593,0.1711,0.1613,0.1618,0.1622,0.1879,0.1883,0.1887,0,0,0,0,0,0,0.137,0.1384,0.1506,0.1448,0.1463,0.1474,0.1509,0.1509,0.1531,0.155,0.1552,0.1524,0.1572,0.1584,0.1664,0.1713,0.1621,0.1626,0.1875,0.188,0.1885,0.195,0,0,0,0,0,0,0.1365,0.1384,0.1421,0.1449,0.1466,0.1575,0.1513,0.1513,0.1541,0.1535,0.157,0.1573,0.1571,0.1655,0.167,0.172,0.1631,0.1871,0.1877,0.1884,0.1944,0.1957,0.1968,0,0,0,0,0,0.1359,0.1438,0.1423,0.1438,0.1513,0.1578,0.1587,0.1582,0.1545,0.1584,0.1595,0.1572,0.1705,0.1664,0.168,0.1733,0.1868,0.1876,0.1883,0.1938,0.1955,0.1968,0,0,0,0,0,0,0.1418,0.1442,0.1426,0.1516,0.1545,0.157,0.1618,0.1599,0.1641,0.1634,0.1626,0.1634,0.1717,0.1733,0.1686,0.1831,0.1781,0.1792,0.1817,0.1833,0.1845,0.184,0.1636,0,0,0,0,0,0.1441,0.149,0.1509,0.1587,0.1602,0.1608,0.1636,0.1628,0.1659,0.1671,0.1689,0.1721,0.1769,0.1802,0.1848,0.1946,0.1952,0.199,0.2002,0.2012,0.2022,0.2073,0.209,0.1912,0.1912,0.1912,0,0,0.1491,0.1509,0.1541,0.1599,0.1621,0.1672,0.1618,0.1676,0.1714,0.1681,0.1756,0.177,0.1805,0.1893,0.1933,0.1909,0.2072,0.2022,0.203,0.2035,0.2083,0.21,0.2115,0.1918,0.1917,0.1916,0,0,0.1606,0.1626,0.1692,0.1714,0.1746,0.1749,0.1764,0.1792,0.1799,0.1874,0.1849,0.1895,0.198,0.2005,0.2029,0.2152,0.2131,0.2167,0.2232,0.2282,0.2296,0.2308,0.2351,0.2367,0.2177,0.2177,0.2177,0,0.1664,0.1739,0.1729,0.1787,0.1813,0.1782,0.1849,0.1872,0.1919,0.1938,0.1909,0.2013,0.2035,0.2128,0.2157,0.2178,0.2196,0.2164,0.2294,0.2307,0.2318,0.2359,0.2375,0.2181,0.2181,0.218,0.218,0,0.1808,0.1861,0.1911,0.1953,0.1985,0.2048,0.2047,0.2081,0.207,0.2076,0.2152,0.2176,0.2226,0.2247,0.2239,0.2339,0.2323,0.2295,0.2245,0.2339,0.2377,0.2393,0.2187,0.2186,0.2184,0.2183,0,0,0.1965,0.1999,0.2017,0.2035,0.2067,0.2109,0.217,0.2216,0.2244,0.2277,0.2328,0.2399,0.2372,0.24,0.2393,0.2437,0.2532,0.2404,0.2404,0.2426,0.2643,0.2664,0.2682,0.2518,0.2521,0.2523,0.2639,0,0.2082,0.2186,0.2177,0.2277,0.2325,0.2295,0.2348,0.2374,0.2381,0.2423,0.2431,0.2481,0.2442,0.2458,0.25,0.2511,0.2575,0.2503,0.2566,0.2568,0.2558,0.2702,0.2725,0.2834,0.2654,0.2657,0.2659,0,0.2233,0.2267,0.2371,0.2393,0.2413,0.2461,0.2502,0.2543,0.2571,0.2573,0.2602,0.2588,0.265,0.2597,0.2683,0.2634,0.2659,0.2668,0.2672,0.2678,0.262,0.2712,0.2868,0.2885,0.2683,0.2681,0.2679,0,0.2335,0.2409,0.2479,0.2496,0.2525,0.2559,0.2573,0.2598,0.2625,0.2661,0.2679,0.2723,0.2747,0.2781,0.2779,0.2742,0.2866,0.2814,0.2869,0.287,0.2898,0.2896,0.306,0.2914,0.2914,0.2913,0.2913,0,0.2467,0.2531,0.2526,0.2569,0.264,0.263,0.2701,0.2711,0.2733,0.2779,0.2756,0.28,0.2794,0.2838,0.2837,0.2907,0.2919,0.2922,0.2921,0.2924,0.2924,0.2941,0.2933,0.2918,0.2917,0.2916,0.2915,0,0.2594,0.2593,0.2668,0.2688,0.2694,0.2746,0.2763,0.2805,0.2808,0.2866,0.2879,0.2886,0.2936,0.2937,0.2996,0.2995,0.308,0.3071,0.307,0.3068,0.3124,0.3118,0.3305,0.3329,0.3167,0.3169,0.317,0,0.2678,0.2727,0.2751,0.2778,0.2793,0.2839,0.2866,0.2857,0.2887,0.2922,0.2959,0.3007,0.3044,0.3126,0.3137,0.3181,0.3173,0.3235,0.3179,0.318,0.3173,0.317,0.3175,0.3246,0.3248,0.3249,0.325,0,0.2827,0.2824,0.2863,0.2902,0.2934,0.2965,0.2993,0.3017,0.3012,0.3046,0.3096,0.3125,0.3183,0.323,0.3272,0.3288,0.3269,0.3267,0.3283,0.3287,0.3284,0.3285,0.31,0.3264,0.3262,0.3261,0.3261,0.326,0.2935,0.2976,0.2999,0.3043,0.3062,0.3089,0.3128,0.3135,0.3176,0.3221,0.3214,0.3269,0.3295,0.3349,0.3368,0.3412,0.339,0.3413,0.3418,0.3424,0.343,0.3276,0.342,0.3419,0.3419,0.3419,0.3418,0,0.3083,0.3095,0.3135,0.3174,0.3209,0.3185,0.3214,0.3245,0.3294,0.3319,0.3355,0.3412,0.3457,0.347,0.3514,0.3547,0.3539,0.3559,0.3557,0.356,0.3447,0.3429,0.3564,0.3564,0.3564,0.3564,0.3564,0.3564,0.3163,0.3231,0.3229,0.3306,0.3318,0.3371,0.3389,0.3413,0.3433,0.3496,0.3533,0.3541,0.3561,0.3606,0.3646,0.3649,0.3667,0.369,0.3689,0.3583,0.3568,0.3555,0.3538,0.3694,0.3694,0.3799,0.38,0.3801]}]]